Location: Wanzleben
(52.0609°N, 11.4408°E)
Time: 07:17:48
(UTC+00:00)

ATLAS CENTAUR R/B - Pass Details

Date: 18 September 2020
Orbit: 479 x 667 km, 64.7° (Epoch: 12 October)

Event Time Altitude Azimuth Distance (km) Brightness Sun altitude
Rises 21:09:09 0° 312° (NW) 2,579 5.8 -30.9°
Reaches altitude 10° 21:12:18 10° 340° (NNW) 1,676 4.6 -31.2°
Enters shadow 21:13:42 13° 2° (N) 1,489 4.1 -31.3°
